Location: Albuquerque Trailhead
(34.7934°N, 106.3736°W)
Time: 00:43:15
(UTC+00:00)

SeaSat 1 - Pass Details

Date: 20 June 2021
Orbit: 745 x 746 km, 108.0° (Epoch: 27 July)

Event Time Altitude Azimuth Distance (km) Brightness Sun altitude
Rises 10:49:45 0° 11° (N) 3,193 6.6 -11.4°
Reaches altitude 10° 10:52:18 10° 360° (N) 2,266 5.5 -11.0°
Maximum altitude 10:56:24 27° 303° (WNW) 1,405 3.7 -10.4°
Enters shadow 11:00:13 11° 249° (WSW) 2,164 4.2 -9.8°
